Weather History for EGLF - October, 2013

Change the Weather History Date:

Sunday, October 20, 2013

  Actual Average (EGLL) Record (EGLL)
Temperature  
Mean Temperature 56 °F -  
Max Temperature 61 °F 57 °F 64 °F (2006)
Min Temperature 52 °F 46 °F 35 °F (2010)
Degree Days  
Heating Degree Days 8    
Growing Degree Days 6 (Base 50)    
Moisture  
Dew Point 54 °F    
Average Humidity 89    
Maximum Humidity 100    
Minimum Humidity 77    
Precipitation  
Precipitation 0.51 in - - ()
Sea Level Pressure  
Sea Level Pressure 29.67 in    
Wind  
Wind Speed 11 mph ()    
Max Wind Speed 20 mph    
Max Gust Speed 34 mph    
Visibility 6.9 miles    
Events Rain , Thunderstorm    
Averages and records for this station are not official NWS values.
T = Trace of Precipitation, MM = Missing Value Source: Averaged Metar Reports

Daily Weather History Graph

Daily Weather History Graph

Search for Another Location

Airport or City:

Trip Planner

Search our weather history database for the weather conditions in past years. The results will help you decide how hot, cold, wet, or windy it might be!

Date:

Astronomy

Oct. 20, 2013 Rise Set
Actual Time 7:35 AM BST 5:59 PM BST
Civil Twilight 7:01 AM BST 6:33 PM BST
Nautical Twilight 6:22 AM BST 7:11 PM BST
Astronomical Twilight 5:44 AM BST 7:50 PM BST
Moon 6:45 PM BST (10/20) 9:09 AM BST (10/20)
Length of Visible Light 11h 31m
Length of Day
10h 24m
Full, 98% of the Moon is Illuminated
Oct 20
Full
Oct 27
Last Quarter
Nov 3
New
Nov 10
First Quarter
Nov 17
Full

Hourly Weather History & Observations

Time (BST) Temp. Dew Point Humidity Pressure Visibility Wind Dir Wind Speed Gust Speed Precip Events Conditions
12:50 AM 55 °F 54 °F 94% 29.70 in 14 mi South 9.2 mph - -   Scattered Clouds
6:50 AM 58 °F 55 °F 86% 29.64 in 12 mi SSW 12.7 mph - -   Mostly Cloudy
7:50 AM 57.2 °F 53.6 °F 88% 29.65 in 5.6 mi SSW 19.6 mph 34.5 mph N/A Rain , Thunderstorm Thunderstorms and Rain
8:20 AM 53.6 °F 50.0 °F 88% 29.68 in 6.2 mi SSW 15.0 mph - N/A Rain , Thunderstorm Thunderstorms and Rain
8:50 AM 53.6 °F 50.0 °F 88% 29.65 in 6.2 mi South 13.8 mph - N/A Rain Light Rain
9:20 AM 55.4 °F 51.8 °F 88% 29.68 in 6.2 mi South 10.4 mph - N/A   Partly Cloudy
9:50 AM 55 °F 52 °F 84% 29.68 in 22 mi South 13.8 mph - -   Scattered Clouds
9:50 AM 55.4 °F 53.6 °F 94% 29.68 in 6.2 mi South 12.7 mph - N/A   Partly Cloudy
10:20 AM 55.4 °F 53.6 °F 94% 29.68 in 6.2 mi South 10.4 mph - N/A   Partly Cloudy
10:50 AM 57.2 °F 57.2 °F 100% 29.68 in 6.2 mi South 10.4 mph - N/A Rain Light Rain Showers
11:20 AM 60.8 °F 59.0 °F 94% 29.68 in 6.2 mi South 13.8 mph - N/A   Scattered Clouds
11:50 AM 60.8 °F 59.0 °F 94% 29.68 in 6.2 mi South 13.8 mph - N/A Rain Rain Showers
12:20 PM 60.8 °F 59.0 °F 94% 29.68 in 6.2 mi South 16.1 mph - N/A Rain Rain Showers
12:50 PM 61 °F 56 °F 77% 29.67 in 14 mi SSW 11.5 mph - -   Scattered Clouds
12:50 PM 62.6 °F 57.2 °F 82% 29.65 in 6.2 mi South 12.7 mph - N/A   Scattered Clouds
1:20 PM 60.8 °F 55.4 °F 82% - 6.2 mi South 13.8 mph - N/A Thunderstorm Thunderstorm
1:50 PM 59.0 °F 55.4 °F 88% 29.65 in 2.5 mi South 16.1 mph 27.6 mph N/A Rain , Thunderstorm Thunderstorms and Rain
2:20 PM 55.4 °F 51.8 °F 88% 29.65 in 3.1 mi West 11.5 mph - N/A Rain Rain Showers
2:50 PM 55.4 °F 51.8 °F 88% 29.65 in 1.7 mi West 4.6 mph - N/A Rain , Thunderstorm Heavy Rain Showers
3:20 PM 57.2 °F 53.6 °F 88% 29.65 in - SSW 11.5 mph - N/A   Partly Cloudy
3:50 PM 56 °F 52 °F 80% 29.66 in 25 mi SW 12.7 mph - -   Mostly Cloudy
3:50 PM 55.4 °F 51.8 °F 88% 29.65 in 6.2 mi SW 11.5 mph - N/A   Partly Cloudy
4:20 PM 55.4 °F 51.8 °F 88% 29.65 in 1.6 mi SW 12.7 mph - N/A Rain Rain Showers
4:50 PM 55.4 °F 51.8 °F 88% 29.65 in 6.2 mi SW 11.5 mph - N/A   Scattered Clouds
5:20 PM 53.6 °F 51.8 °F 94% 29.68 in 6.2 mi SSW 8.1 mph - N/A   Scattered Clouds
5:50 PM 53.6 °F 51.8 °F 94% 29.68 in 6.2 mi SW 10.4 mph - N/A   Scattered Clouds
6:20 PM 53.6 °F 51.8 °F 94% 29.68 in 6.2 mi SW 10.4 mph - N/A   Scattered Clouds
6:50 PM 54 °F 52 °F 89% 29.71 in 16 mi SSW 11.5 mph - -   Scattered Clouds
6:50 PM 53.6 °F 51.8 °F 94% 29.71 in 6.2 mi SSW 11.5 mph - N/A   Scattered Clouds
7:20 PM 53.6 °F 51.8 °F 94% 29.71 in 6.2 mi SSW 11.5 mph - N/A   Scattered Clouds
9:50 PM 57 °F 53 °F 82% 29.74 in 11 mi SW 16.1 mph - -   Scattered Clouds